Abha, Saudi Arabia

8:43 AM +03 on September 18, 2019 (GMT +0300)
Abha

Weather History for OEAB - May, 2019

Change the Weather History Date:

Saturday, May 11, 2019

  Actual Average Record
Temperature  
Mean Temperature 70 °F -  
Max Temperature 80 °F 81 °F 86 °F (2002)
Min Temperature 60 °F 59 °F 55 °F (1999)
Cooling Degree Days 5    
Growing Degree Days 20 (Base 50)    
Moisture  
Dew Point 48 °F    
Average Humidity 48    
Maximum Humidity 72    
Minimum Humidity 18    
Precipitation  
Precipitation 0.00 in - - ()
Sea Level Pressure  
Sea Level Pressure 30.25 in    
Wind  
Wind Speed 5 mph ()    
Max Wind Speed 18 mph    
Max Gust Speed -    
Visibility 5.6 miles    
Events      
Averages and records for this station are not official NWS values.
T = Trace of Precipitation, MM = Missing Value Source: Averaged Metar Reports

Daily Weather History Graph

Daily Weather History Graph

Search for Another Location

Airport or City:

Astronomy

May. 11, 2019 Rise Set
Actual Time 5:37 AM +03 6:33 PM +03
Civil Twilight 5:14 AM +03 6:57 PM +03
Nautical Twilight 4:47 AM +03 7:24 PM +03
Astronomical Twilight 4:19 AM +03 7:52 PM +03
Moon 11:25 AM +03 (5/11) No Moon Set
Length of Visible Light 13h 42m
Length of Day
12h 56m
Waxing Crescent, 42% of the Moon is Illuminated
May 11
Waxing Crescent
May 12
First Quarter
May 19
Full
May 26
Last Quarter
Jun 3
New

Hourly Weather History & Observations

Time (+03) Temp. Dew Point Humidity Pressure Visibility Wind Dir Wind Speed Gust Speed Precip Events Conditions
12:00 AM 64.4 °F 48.2 °F 56% 30.27 in - Calm Calm - N/A   Clear
1:00 AM 60.8 °F 51.8 °F 72% 30.24 in - Calm Calm - N/A   Clear
2:00 AM 64.4 °F 50.0 °F 59% 30.24 in - Calm Calm - N/A   Clear
3:00 AM 62.6 °F 50.0 °F 63% 30.24 in - Calm Calm - N/A   Clear
4:00 AM 62.6 °F 51.8 °F 68% 30.21 in - Calm Calm - N/A   Clear
5:00 AM 62.6 °F 51.8 °F 68% 30.24 in - Calm Calm - N/A   Clear
6:00 AM 62.6 °F 50.0 °F 63% 30.24 in - Calm Calm - N/A   Clear
9:00 AM 75.2 °F 44.6 °F 34% 30.30 in 2.5 mi ENE 12.7 mph - N/A   Clear
10:00 AM 78.8 °F 42.8 °F 28% 30.30 in 3.7 mi ESE 11.5 mph - N/A   Clear
11:00 AM 80.6 °F 39.2 °F 23% 30.27 in 5.0 mi ESE 17.3 mph - N/A   Clear
12:00 PM 77.0 °F 30.2 °F 18% 30.27 in 6.2 mi SSE 9.2 mph - N/A   Partly Cloudy
1:00 PM 80.6 °F 41.0 °F 24% 30.24 in 6.2 mi South 9.2 mph - N/A   Scattered Clouds
2:00 PM 80.6 °F 44.6 °F 28% 30.24 in 6.2 mi SSW 18.4 mph - N/A   Scattered Clouds
3:00 PM 80.6 °F 50.0 °F 34% 30.21 in 6.2 mi SSW 15.0 mph - N/A   Scattered Clouds
5:00 PM 78.8 °F 48.2 °F 34% 30.21 in - South 15.0 mph - N/A   Clear
6:00 PM 75.2 °F 44.6 °F 34% 30.21 in 6.2 mi SW 10.4 mph - N/A   Partly Cloudy
7:00 PM 71.6 °F 51.8 °F 50% 30.24 in 6.2 mi SW 9.2 mph - N/A   Partly Cloudy
8:00 PM 69.8 °F 53.6 °F 56% 30.24 in 6.2 mi WSW 5.8 mph - N/A   Scattered Clouds
9:00 PM 68.0 °F 55.4 °F 64% 30.27 in 6.2 mi SSW 4.6 mph - N/A   Scattered Clouds
10:00 PM 68.0 °F 55.4 °F 64% 30.27 in 6.2 mi South 4.6 mph - N/A   Scattered Clouds
11:00 PM 68.0 °F 53.6 °F 60% 30.27 in 6.2 mi SSE 3.5 mph - N/A   Scattered Clouds